User: anonymous   Login
Location: Melbourne
(37.8170°S, 144.9670°E)
Time: 23:34:12
(UTC+10:00)
Language:

ERBS - Orbit

View from above orbital plane
View from above orbital plane
View from above satellite
View from above satellite

Ground track
Ground track

The orbit data is extracted from the following two-line orbital elements,

1 15354U 84108B   18170.93054907 +.00002464 +00000-0 +57980-4 0  9992
2 15354 057.0079 352.1278 0016091 088.9143 271.3757 15.46002304854763
Epoch (UTC): 19 June 2018 22:19:59
Eccentricity: 0.0016091
inclination: 57.0079°
perigee height: 417 km
apogee height: 439 km
right ascension of ascending node: 352.1278°
argument of perigee: 88.9143°
revolutions per day: 15.46002304
mean anomaly at epoch: 271.3757°
orbit number at epoch: 85476

The dashed part of the orbit path shows where the satellite is in the earth's shadow,  

DLR